www.pogodaiklimat.ru

Погода и климат >> Архив погоды >> Ирак >> Fao


ПОГОДА в Fao

  • Прогноз погоды в Fao
  • Монитор погоды в Fao
  • Климат города

АРХИВ ПОГОДЫ в Fao

Время (UTC), дата Ветер
(напр.,м/с)
 
Видим.   Явления Облачность Т
(С)
Тd
(С)
f
(%)
Тe
(С)
Тes
(С)
Комфортность P
(гПа)
Po
(гПа)
Тmin
(С)
Tmax
(С)
R
(мм)
R24
(мм)
S
(см)
06 6.12 В 2 10 км {дождь} 9/6 1050 м
[Cu Sc Ac trans]
+21.8 +17.6 77 +26 +27 душно 1014.4 1014.0 +19.8 0.0
09 6.12 ЮВ 3 10 км 6/4 1200 м
[Cu med, cong Ac trans]
+23.8 +18.5 72 +28 +31 душно 1011.8 1012.0
12 6.12 ЮВ 5 10 км 1/1 1200 м
[Cu med, cong]
+24.2 +19.6 76 +29 +31 душно 1010.0 1010.0
15 6.12 ЮВ 5 10 км ясно +21.6 +18.1 80 +26 +26 душно 1011.2 1011.0
18 6.12 З 3 10 км ясно +19.8 +13.6 67 +22 +22 комфорт 1013.8 1014.0 +25.0
21 6.12 З 2 10 км ясно +17.8 +12.8 73 +18 +18 1014.6 1015.0
00 7.12 СЗ 2 10 км ясно +16.2 +12.6 79 +16 +16 1015.4 1015.0
03 7.12 штиль 0 10 км ясно +15.3 +13.3 88 +15 +15 1016.4 1016.0
06 7.12 ЮЗ 2 10 км ясно +18.0 +14.2 78 +19 +22 1018.4 1018.0 +14.6
09 7.12 ЮВ 2 10 км ясно +22.4 +15.4 65 +26 +34 жарко 1017.6 1018.0
12 7.12 ЮВ 2 10 км ясно +23.4 +13.1 52 +26 +29 жарко 1016.6 1017.0
15 7.12 штиль 0 10 км ясно +20.0 +14.2 69 +22 +22 комфорт 1017.2 1017.0
18 7.12 штиль 0 10 км ясно +18.8 +15.4 81 +20 +20 1018.4 1018.0 +23.8
21 7.12 штиль 0 10 км ясно +16.8 +14.4 86 +17 +17 1018.8 1019.0
00 8.12 штиль 0 10 км 4/1 1200 м
[Cu hum Ac trans]
+16.2 +13.7 85 +16 +16 1018.2 1018.0
03 8.12 штиль 0 10 км 6/5 1200 м
[Cu med, cong Ac trans]
+16.8 +14.0 84 +17 +17 1019.0 1019.0
06 8.12 В 2 10 км 8/8 1050 м
[Cu Sc Ac trans]
+20.2 +15.2 73 +23 +24 комфорт 1021.4 1021.0 +15.0
09 8.12 ЮЗ 2 10 км 5/1 1200 м
[Cu hum Ac cast Ci fib]
+23.8 +16.3 63 +27 +33 жарко 1020.6 1021.0
12 8.12 ЮВ 2 10 км 6/4 1200 м
[Cu med, cong Ac trans Ci fib]
+24.6 +13.0 48 +27 +28 жарко 1019.8 1020.0
15 8.12 СВ 3 10 км 3/0
[Ac trans Ci fib]
+20.2 +15.7 75 +23 +23 комфорт 1020.4 1020.0
21 8.12 штиль 0 10 км ясно +18.0 +15.3 84 +18 +18 1021.2 1021.0
00 9.12 штиль 0 10 км ясно +17.0 +15.6 91 +17 +17 1020.8 1021.0
03 9.12 штиль 0 10 км ясно +16.0 +13.9 87 +16 +16 1021.2 1021.0
06 9.12 С 2 10 км 1/0
[Ac trans]
+19.0 +11.4 61 +20 +24 1022.8 1023.0 +15.0
09 9.12 ЮЗ 2 10 км 4/4 1200 м
[Cu hum]
+23.0 +9.4 42 +25 +29 комфорт 1021.8 1022.0
12 9.12 Ю 2 10 км 4/3 1200 м
[Cu hum Ac trans]
+22.6 +8.9 42 +24 +26 комфорт 1020.8 1021.0
15 9.12 штиль 0 10 км 5/4 1200 м
[Cu hum Ac trans Ci fib]
+20.4 +12.3 60 +22 +22 комфорт 1021.0 1021.0
21 9.12 штиль 0 10 км ясно +18.2 +13.7 75 +18 +18 1021.2 1021.0
03 10.12 СЗ 2 10 км 1/1 1200 м
[Cu hum]
+16.2 +12.6 79 +16 +16 1020.4 1020.0
06 10.12 С 2 10 км ясно +18.2 +12.1 68 +19 +22 1021.6 1022.0 +15.2
09 10.12 СЗ 2 10 км ясно +22.2 +10.7 48 +24 +32 комфорт 1020.2 1020.0
12 10.12 штиль 0 10 км 3/1 1200 м
[Cu hum Ac trans Ci fib]
+23.4 +11.4 47 +26 +28 жарко 1019.2 1019.0
15 10.12 штиль 0 10 км 3/1 1200 м
[Cu hum Ac trans Ci fib]
+20.4 +12.3 60 +22 +22 комфорт 1020.4 1020.0
18 10.12 штиль 0 10 км ясно +18.4 +12.7 69 +19 +19 1021.4 1021.0 +23.8
21 10.12 СЗ 2 10 км ясно +17.0 +12.5 75 +17 +17 1021.6 1022.0
00 11.12 СЗ 2 10 км ясно +15.6 +12.0 79 +16 +16 1022.0 1022.0
03 11.12 СЗ 3 10 км ясно +14.0 +11.4 84 +13 +13 1023.0 1023.0
06 11.12 СЗ 3 10 км ясно +16.2 +12.2 77 +16 +19 1024.6 1025.0 +13.2
09 11.12 СЗ 3 10 км ясно +20.2 +10.8 55 +22 +29 комфорт 1023.6 1024.0
12 11.12 СЗ 3 10 км ясно +22.0 +9.0 43 +23 +25 комфорт 1022.4 1022.0
15 11.12 СЗ 2 10 км ясно +18.6 +11.3 62 +20 +20 1023.2 1023.0
18 11.12 СЗ 2 10 км ясно +17.0 +12.3 74 +17 +17 1023.8 1024.0 +22.2
21 11.12 СЗ 3 10 км ясно +14.8 +10.7 76 +14 +14 1023.6 1024.0
00 12.12 СЗ 2 10 км ясно +13.4 +10.4 82 +13 +13 1024.0 1024.0
03 12.12 СЗ 2 10 км ясно +12.4 +9.3 81 +11 +11 1024.4 1024.0
06 12.12 СЗ 3 10 км ясно +15.2 +11.1 77 +15 +17 1025.6 1026.0 +11.8
09 12.12 СЗ 2 10 км ясно +19.8 +9.3 51 +22 +29 комфорт 1024.2 1024.0
12 12.12 СЗ 3 10 км ясно +22.0 +8.0 41 +23 +25 комфорт 1022.8 1023.0
15 12.12 СЗ 2 10 км ясно +18.6 +10.5 59 +20 +20 1022.8 1023.0
18 12.12 штиль 0 10 км ясно +15.8 +10.1 69 +16 +16 1023.6 1024.0 +22.4
00 13.12 СЗ 2 10 км ясно +13.6 +9.5 76 +13 +13 1023.4 1023.0

 

Местоположение метеостанции Fao (Ирак): широта 29.98 долгота 48.50 высота над уровнем моря 2 м.

В архиве по умолчанию представлена погода в Fao за последнюю неделю. Архивные данные за месяц целиком и за предыдущие месяцы, начиная с января 2011 года, Вы можете получить, выбрав интересующий диапазон дат из раскрывающегося списка и нажав кнопку "Ввод!".


*Определитесь, кто Вы:
робот инопланетянин человек

Внимание! Время в таблицах - всемирное. Для получения местного времени необходимо прибавить поправку, которая в Fao равна 3 ч.

Смотрите также архив погоды в соседних городах и на ближайших метеорологических станциях:

Погода в Bubiyan (Кувейт) (26 км)
Погода в Abadan (Иран) (50 км)
Погода в Failaka Island (Кувейт) (61 км)
Погода в Sabriyah (Кувейт) (68 км)
Погода в Abdaly (Кувейт) (78 км)
Погода в Al-Shuaiba (Кувейт) (80 км)
Погода в Kuwait City (Кувейт) (84 км)
Погода в Basrah Airport (Ирак) (92 км)
Погода в Experimental Farm (Кувейт) (94 км)
Погода в Basrah (Ирак) (95 км)

Пояснения к столбцам:

Ветер - указаны скорость ветра в м/с - средняя за 10 мин, порывы в срок и между сроками (в фигурных скобках) и направление, откуда дует ветер: С - северный, СВ - северо-восточный, В - восточный, ЮВ - юго-восточный, Ю - южный, ЮЗ - юго-западный, З - западный, СЗ - северо-западный.
Видимость - горизонтальная дальность видимости в метрах или километрах. При видимости от 1 до 10 км при отсутствии осадков обычно наблюдается дымка, при ухудшении видимости до 1 км и менее - туман. В сухую погоду видимость может ухудшаться дымом, пылью или мглою.
Явления - указаны атмосферные явления, наблюдавшиеся в срок или в последний час перед сроком; фигурными скобками обозначены явления, наблюдавшиеся между сроками (за 1-3 часа до срока); квадратными скобками обозначены град или гололедные отложения с указанием их диаметра в мм.
Облачность - указаны через наклонную черту общая и нижняя облачность в баллах и высота нижней границы облаков в метрах; квадратными скобками обозначены формы облаков: Ci - перистые, Cs - перисто-слоистые, Cc - перисто-кучевые, Ac - высококучевые, As - высокослоистые, Sc - слоисто-кучевые, Ns - слоисто-дождевые, Cu - кучевые, Cb - кучево-дождевые. Подробнее классификацию облаков см. в Атласе облаков (PDF).
T - Температура воздуха - температура, измеренная на высоте 2 м над землей.
Td - Температура точки росы - температура, при понижении до которой содержащийся в воздухе водяной пар достигнет насыщения.
f - Относительная влажность воздуха - влажноcть воздуха, измеренная на высоте 2 м над землей.
Te - Эффективная температура - температура, которую ощущает одетый по сезону человек в тени. Характеристика душности погоды. При расчете учитывается влияние влажности воздуха и скорости ветра на теплоощущения человека.
Tes - Эффективная температура на солнце - температура, которую ощущает человек, с поправкой на солнечный нагрев. Характеристика знойности погоды. Зависит от высоты солнца над горизонтом, облачности и скорости ветра. Ночью, в пасмурную погоду, а также при ветре 12 м/с и более поправка равна нулю.
P - Атмосферное давление - приведенное к уровню моря атмосферное давление.
Po - Атмосферное давление - измеренное на уровне метеостанции атмосферное давление.
Tmin - Минимальная температура - минимум температуры воздуха на высоте 2 м над землей.
Tmax - Максимальная температура - максимум температуры воздуха на высоте 2 м над землей.
R - Количество осадков - Количество выпавших осадков за период времени, мм. При наведении курсора мыши на число - период времени, за который выпало указанное количество осадков.
R24 - Количество осадков - Количество выпавших осадков за 24 часа, мм.
S - Снежный покров - Высота снежного покрова, см. При наведении курсора мыши на число - состояние снежного покрова и степень покрытия местности в баллах.